Simultaneous Nadir Overpasses (SNOs) Predictions

Prediction of SNOs between LANDSAT-8 and METOP-A Satellite Orbit:

Table of predicted SNOs for the next 14.0 days since TLE Epoch: 8/21/2015
Index Date (LANDSAT-8) Time (LANDSAT-8) Lat,Lon (LANDSAT-8) SZA (LANDSAT-8 ) Date (METOP-A) Time (METOP-A) Lat,Lon (METOP-A) SZA (METOP-A ) Distance(km) Time Diff (sec)
1 08/21/2015 09:22:20 -81.23, -98.87 108.75 08/21/2015 09:22:02 -81.23, -98.81 108.75 1.02 18
2 08/21/2015 10:11:46 81.24, 68.90 71.28 08/21/2015 10:12:42 81.24, 68.70 71.29 3.31 56
3 08/24/2015 04:56:36 -81.24, -32.28 107.77 08/24/2015 04:56:23 -81.23, -32.25 107.77 0.68 13
4 08/24/2015 05:46:02 81.24, 135.45 72.26 08/24/2015 05:47:02 81.25, 135.63 72.31 3.22 60
5 08/27/2015 00:30:51 -81.24, 34.24 106.77 08/27/2015 00:30:43 -81.24, 34.29 106.77 0.89 8
6 08/27/2015 01:20:17 81.25,-158.05 73.26 08/27/2015 01:21:23 81.24,-158.23 73.26 3.01 66
7 08/29/2015 20:05:07 -81.24, 100.72 105.76 08/29/2015 20:05:04 -81.24, 100.80 105.75 1.49 3
8 08/29/2015 20:54:33 81.25, -91.61 74.27 08/29/2015 20:55:44 81.24, -91.73 74.28 2.03 71
9 09/01/2015 14:49:57 81.22, -0.91 75.20 09/01/2015 14:48:46 81.22, -0.89 75.17 0.24 71




NCC Satellite Simultaneous Nadir Overpasses (SNOs) Prediction Service
